Regional Weather Roundup
Issued by NWS Grand Forks, ND

Home | Current Version | Previous Version | Text Only | Print | Product List | Glossary Off
Versions: 1 2 3 4 5 6 7 8 9 10 11 12 13 14 15 16 17 18 19 20 21 22 23 24 25 26 27 28 29 30 31 32 33 34 35 36 37 38 39 40 41 42 43 44 45 46 47 48 49 50

000
ASUS43 KFGF 080531
RWRFGF
PRAIRIE TO PINES  WEATHER ROUNDUP
NATIONAL WEATHER SERVICE EASTERN NORTH DAKOTA/GRAND FORKS ND
1100 PM CST WED DEC 07 2016

 **SATELLITE DATA USED TO AUGMENT SKY COVER AT AUTOMATED STATIONS**
 *****  WEATHER ACROSS EASTERN NORTH DAKOTA  *****

CITY           SKY/WX    TMP DP  RH WIND       PRES   REMARKS
GRAND FORKS    CLOUDY    20  15  81 NW23G33   30.24R BLWGSNOWWCI   3
GRAND FRKS AFB FLURRIES  18  14  86 NW17G25   30.26R WCI   2
DEVILS LAKE    LGT SNOW  12   9  85 NW22      30.32R FOG     WCI  -7
FARGO          CLOUDY    19  13  77 NW22G32   30.23R WCI   2
WAHPETON ARPT  CLOUDY    14   9  79 NW23      30.25R WCI  -5
$$

 ***** WEATHER ACROSS CENTRAL AND WESTERN NORTH DAKOTA  *****

CITY           SKY/WX    TMP DP  RH WIND       PRES   REMARKS
BISMARCK       LGT SNOW   5   1  83 NW16G26   30.49R FOG     WCI -14
MINOT          LGT SNOW   6   1  80 W26G35    30.45R WCI -16
JAMESTOWN      CLOUDY     8   5  87 NW28G35   30.33R BLWGSNOWWCI -14
MINOT AFB      CLEAR      5   0  80 NW30G36   30.43R HAZE    WCI -19
GARRISON         N/A      3  -1  83 NW28      30.45R WCI -21
WILLISTON      CLOUDY     1  -7  68 W14       30.60R WCI -17
DICKINSON      CLOUDY    -1  -7  75 NW23      30.46R WCI -25
HETTINGER      CLEAR      0  -6  76 NW17      30.47R WCI -21
$$

 *****  OTHER AIRPORT OBSERVATIONS IN OUR AREA  *****

CITY           SKY/WX    TMP DP  RH WIND       PRES   REMARKS
WALHALLA       LGT SNOW  18  18 100 NW23G32   30.30R WCI   0
GRAFTON AIRPOR FLURRIES  19  16  86 NW25G32   30.27R WCI   2
VALLEY CITY AR FLURRIES   9   7  92 NW25G31   30.31R WCI -13
CANDO          CLOUDY    10   7  85 NW23G31   30.37R WCI -10
CAVALIER APRT  LGT SNOW  18  16  93 NW22G32   30.28R WCI   0
GWINNER        CLOUDY    14  10  85 NW20G30   30.31R WCI  -3
SHEYENNE NWR     N/A     12   5  73 NW16      29.95S WCI  -5
ROLLA          LGT SNOW   7   5  92 NW29G36   30.33R WCI -16
 ***** THE ABOVE OBSERVATIONS ARE NON NWS ARE NOT QUALITY
       CONTROLLED AND MAY MIS-REPORT RAIN FOR SNOW...
$$

  *****  WEATHER ACROSS NORTHERN MINNESOTA  *****

CITY           SKY/WX    TMP DP  RH WIND       PRES   REMARKS
FLAG ISLAND    CLOUDY    21  18  86 N21       30.10R WCI   6
WARROAD        MOCLDY    19  16  86 NW12      30.13R WCI   7
ROSEAU         LGT SNOW  19  16  86 NW16      30.15R WCI   5
HALLOCK          N/A     19  16  86 N23G32    30.23R WCI   2
THF RVR FALLS  FLURRIES  19  16  88 N17       30.16R WCI   4
BAUDETTE       LGT SNOW  21  16  81 N13       30.07R WCI   9
WASKISH        FLURRIES  19  18  93 NW10      30.07R WCI   8
CROOKSTON      LGT SNOW  19  18  93 N28G35    30.21R WCI   1
STEPHEN NDAWN    N/A     18  16  93 N23         N/A  WCI   0
GREENBUSH NDAW   N/A     18  18 100 NW14        N/A  WCI   4
$$
  *****  WEATHER ACROSS CENTRAL AND WEST MINNESOTA  *****

CITY           SKY/WX    TMP DP  RH WIND       PRES   REMARKS
FOSSTON        LGT SNOW  18  16  93 NW14      30.13R WCI   4
BEMIDJI        LGT SNOW  18  15  87 NW13      30.07R WCI   5
PARK RAPIDS    FLURRIES  19  12  74 NW13      30.06R WCI   6
ELBOW LAKE     LGT SNOW  12  10  92 NW22G28   30.20R WCI  -7
WADENA         MIX PCPN  18  14  86 W13G25    30.10R WCI   4
DETROIT LAKES  LGT SNOW  19  18  93 NW18      30.14R WCI   4
MOORHEAD       MIX PCPN  18  14  86 NW26      30.23R WCI  -1
FERGUS FALLS   LGT SNOW  12  10  92 NW21      30.25R WCI  -6
MORRIS MN      LGT SNOW  12   9  85 NW22G31   30.21R WCI  -7
STAPLES        CLOUDY    16  12  86 W17       30.08R WCI   0
$$
  *****  WEATHER ELSEWHERE ACROSS MINNESOTA  *****

CITY           SKY/WX    TMP DP  RH WIND       PRES   REMARKS
DULUTH         FLURRIES  19  15  84 W13       29.91R WCI   6
INTRNTL FALLS  LGT SNOW  22  17  81 N14       30.00R WCI   9
ELY            FLURRIES  21  18  86 NW6G17    29.89R WCI  14
CLOQUET        FLURRIES  18  14  86 W8        29.95R WCI   7
WHEATON        FLURRIES  14  10  85 W21G30    30.28R WCI  -4
BRAINERD       CLOUDY    18  13  80 W13G21    30.05R WCI   5
HIBBING        LGT SNOW  21  17  84 NW16      29.95R FOG     WCI   7
ALEXANDRIA     LGT SNOW  13  10  88 NW22G28   30.14R FOG     WCI  -6
SAINT CLOUD    LGT SNOW  14  10  84 W15       30.12R FOG     WCI  -1
MINNEAPOLIS    FLURRIES  16   8  71 W20G25    30.14R WCI  -1
$$

  *****  WEATHER ACROSS SOUTH DAKOTA  *****

CITY           SKY/WX    TMP DP  RH WIND       PRES   REMARKS
SIOUX FALLS    PTCLDY     9   3  77 NW22G31   30.36R WCI -11
BROOKINGS      FLURRIES   6   2  83 NW22G30   30.29S WCI -15
WATERTOWN      LGT SNOW   8   3  80 NW24G31   30.29R WCI -13
HURON          CLOUDY     7   1  76 NW24G33   30.44R WCI -14
SISSETON         N/A     12   7  80 NW28G35   30.26R WCI  -9
ABERDEEN       FLURRIES  10   2  69 NW22G32   30.38R WCI -10
MITCHELL       PTCLDY     9   1  70 NW20      30.46R WCI -10
PIERRE         MIX PCPN   7  -1  70 NW25G37   30.49R WCI -15
MOBRIDGE       CLOUDY     5  -3  69 NW24G31   30.44R WCI -17
RAPID CITY     CLEAR      3  -5  69 NW15      30.48R WCI -16
$$

  *****  SOME WEATHER IN NEARBY STATES *****

CITY           SKY/WX    TMP DP  RH WIND       PRES   REMARKS
GLASGOW MT     CLOUDY    -1  -9  68 W21G26    30.62R WCI -24
GREAT FALLS MT CLOUDY     0  -6  76 CALM      30.52S
CHEYENNE WY    CLOUDY   -11 -16  78 CALM      30.30R
SCOTTSBLUFF NE CLEAR     -2  -8  76 NW8       30.48R WCI -17
OMAHA NE       CLEAR     17   5  59 NW18G28   30.46R WCI   1
DES MOINES IA  PTCLDY    18   7  62 NW21G30   30.35R WCI   1
DAVENPORT IA   CLEAR     20  13  74 W16       30.25R WCI   6
CHICAGO IL     FLURRIES  24  15  68 W17G29    30.14S WCI  11
EAU CLAIRE WI  LGT SNOW  16  10  77 W10       30.07R WCI   4
LA CROSSE WI   CLOUDY    20   9  62 W18G28    30.15R WCI   5
$$

  *****  SOME NATIONAL WEATHER *****

CITY           SKY/WX    TMP DP  RH WIND       PRES   REMARKS
LA GUARDIA NY  CLOUDY    45  35  68 SW5       30.01F
RALEIGH NC     CLOUDY    49  44  83 CALM      30.06F
ATLANTA GA     PTCLDY    45  41  86 NW9       30.11S
NEW ORLEANS LA CLOUDY    59  56  89 N7        30.18R
OKLAHOMA CITY  CLOUDY    29  23  78 N10       30.48R WCI  20
ALBUQUERQUE NM CLOUDY    35  17  47 N8        30.21R
SALT LAKE CITY CLEAR     21  11  65 S3        30.33R
LOS ANGELES CA CLEAR     57  51  80 N3        30.15R
BOISE ID       PTCLDY    18  11  74 SE9       30.36S WCI   7
SEATTLE WA     CLEAR     32  15  49 NE10      30.30F WCI  24
$$

*** WEATHER ACROSS MANITOBA...SASKATCHEWAN AND ONTARIO ***
                ***ONTARIO***

CITY           SKY/WX    TMP DP  RH WIND       PRES   REMARKS
GERALDTON      LGT SNOW  21  19  93 N9        29.69R DRFTSNOWWCI  11
THUNDER BAY    FLURRIES  25  19  80 W8        29.80R WCI  16
SIOUX LOOKOUT  LGT SNOW  19  16  86 N8G20     29.95R DRFTSNOWWCI   9
TORONTO        PTCLDY    30  25  80 W9        29.90F WCI  22
BIG TROUT LK   FLURRIES  19  16  86 N10G25    30.01  WCI   8
PICKLE LAKE    NOT AVBL
DRYDEN         LGT SNOW  19  18  93 NW7       29.98R WCI  10
KENORA         LGT SNOW  18  14  86 N10       30.06R WCI   6
$$
                *** MANITOBA***

CITY           SKY/WX    TMP DP  RH WIND       PRES   REMARKS
BRANDON        CLOUDY    10   5  79 NW25      30.38R WCI -10
DAUPHIN        CLOUDY    10   7  85 N12G17    30.45R WCI  -4
ISLAND LAKE    NOT AVBL
PILOT MOUND      N/A     10   7  85 NW20G25     N/A  WCI  -8
THE PAS        CLOUDY     5   0  78 N15G23    30.53R WCI -13
THOMPSON       FLURRIES  -9 -15  77 N12       30.48S WCI -29
WINNIPEG       FLURRIES  18  14  86 NW25G31   30.26R WCI  -1
LYNN LAKE      CLEAR    -15 -18  84 N8        30.55R WCI -32
CHURCHILL      SNOW       3   0  85 NW24G35   30.45R VSB 1/4 WCI -20
GILLAM         FLURRIES  -2  -6  84 NW15G22   30.39R WCI -22
$$
                ***SASKATCHEWAN***

CITY           SKY/WX    TMP DP  RH WIND       PRES   REMARKS
ESTEVAN        FLURRIES   1  -4  78 NW20G26   30.51R WCI -20
KINDERSLEY     PTCLDY   -11 -15  84 NW5       30.62R WCI -23
LLOYDMINSTER   CLEAR     -9 -15  77 NW9       30.64S WCI -27
PRINCE ALBERT  FLURRIES   0  -8  71 NW10      30.62R WCI -17
REGINA         FLURRIES   1  -4  78 NW18G24   30.55R WCI -19
YORKTON        CLOUDY     5   1  85 NW10      30.48R WCI -10
N. BATTLEFORD  LGT SNOW  -2  -8  78 NW14      30.67R WCI -21
LA RONGE       FLURRIES  -8 -15  71 NW7       30.67R WCI -22
SASKATOON      PTCLDY    -6  -9  84 NW7       30.64R WCI -20
SWIFT CURRENT  CLEAR     -9 -13  84 W15       30.55R WCI -31
$$
NOTE: THESE ARE AUTOMATED STATIONS WITH LIMITED QUALITY CONTROL
      "FAIR" INDICATES FEW OR NO CLOUDS BELOW 12,000 FEET WITH NO
      SIGNIFICANT WEATHER AND/OR OBSTRUCTIONS TO VISIBILITY.
      SKY/WX - SKY CONDITION AND SIGNIFICANT WEATHER.
      TMP - AIR TEMPERATURE.    DP   - DEWPOINT TEMPERATURE.
      RH  - RELATIVE HUMIDITY.  PRES - PRESSURE.
      HX  - HEAT INDEX.         WCI  - WIND CHILL INDEX.
$



USA.gov is the U.S. government's official web portal to all federal, state and local government web resources and services.